Flight Track Log - Related Links

Times and Time Zones

All times are in EDT time to prevent confusion due to time zone crossing. See the ASQ4345 flight status page for this flight to view local times or setup timezone preferences in your user account.

Time Position Orientation Groundspeed Altitude Reporting Facility
EDT Latitude Longitude Course Direction KTS MPH feet Rate Location/Type
Wed 10:14:33 AM 29.9639 -95.3433 209° Southwest 175 201 900  Level Houston Center
Wed 10:15:34 AM 29.9303 -95.2992 131° Southeast 199 229 3,100 2,000 Climbing Houston Center
Wed 10:16:09 AM 29.9139 -95.2742 127° Southeast 199 229 4,100 911 Climbing Houston Center
Wed 10:16:53 AM 29.8789 -95.2211 127° Southeast 232 267 4,300 290 Climbing Houston Center
Wed 10:17:11 AM 29.8744 -95.2139 125° Southeast 224 258 4,400 857 Climbing Houston Center
Wed 10:17:42 AM 29.8475 -95.1742 128° Southeast 246 283 5,000 968 Climbing Houston Center
Wed 10:18:13 AM 29.8331 -95.1506 125° Southeast 240 276 5,400 1,636 Climbing Houston Center
Wed 10:18:37 AM 29.8083 -95.1164 130° Southeast 244 281 6,500 2,516 Climbing Houston Center
Wed 10:19:00 AM 29.6103 -95.5436 209° Southwest  Level FlightAware Approximate
Wed 10:19:15 AM 29.7825 -95.0717 124° Southeast 251 289 8,000  Level Houston Center
Wed 10:20:17 AM 29.7169 -95.0564 169° South 248 285 9,900 1,344 Climbing Houston Center
Wed 10:21:20 AM 29.6397 -95.0589 182° South 268 308 10,800 768 Climbing Houston Center
Wed 10:22:22 AM 29.5547 -95.0900 198° South 321 369 11,500 629 Climbing Houston Center
Wed 10:23:24 AM 29.4906 -95.1761 229° Southwest 340 391 12,100 1,016 Climbing Houston Center
Wed 10:24:26 AM 29.4294 -95.2639 231° Southwest 346 398 13,600 1,645 Climbing Houston Center
Wed 10:25:28 AM 29.3692 -95.3483 231° Southwest 342 394 15,500 1,694 Climbing Houston Center
Wed 10:26:30 AM 29.3119 -95.4308 232° Southwest 334 384 17,100 1,645 Climbing Houston Center
Wed 10:27:32 AM 29.2522 -95.5142 231° Southwest 335 386 18,900 1,645 Climbing Houston Center
Wed 10:28:34 AM 29.1792 -95.6183 231° Southwest 347 399 20,500 1,344 Climbing Houston Center
Wed 10:29:37 AM 29.1158 -95.7078 231° Southwest 357 411 21,700 720 Climbing Houston Center
Wed 10:30:39 AM 29.0497 -95.8014 231° Southwest 373 429 22,000 145 Climbing Houston Center
Wed 10:31:41 AM 28.9789 -95.9019 231° Southwest 396 456 22,000  Level Houston Center
Wed 10:32:43 AM 28.9047 -96.0025 230° Southwest 415 478 22,000  Level Houston Center
Wed 10:33:45 AM 28.8314 -96.1047 231° Southwest 416 479 22,000  Level Houston Center
Wed 10:34:47 AM 28.7447 -96.2247 231° Southwest 410 472 22,000  Level Houston Center
Wed 10:35:49 AM 28.6719 -96.3250 230° Southwest 410 472 22,000 -435 Level Houston Center
Wed 10:36:51 AM 28.6000 -96.4244 231° Southwest 407 468 21,100 -1,161 Descending Houston Center
Wed 10:37:53 AM 28.5281 -96.5228 230° Southwest 404 465 19,600 -1,680 Descending Houston Center
Wed 10:38:56 AM 28.4592 -96.6211 231° Southwest 399 459 17,600 -1,872 Descending Houston Center
Wed 10:39:58 AM 28.3919 -96.7122 230° Southwest 383 441 15,700 -1,984 Descending Houston Center
Wed 10:41:00 AM 28.3186 -96.8233 233° Southwest 368 423 13,500 -1,985 Descending Houston Center
Wed 10:42:08 AM 28.2661 -96.9283 240° Southwest 340 391 11,400 -1,594 Descending Houston Center
Wed 10:43:08 AM 28.2228 -97.0106 239° Southwest 290 334 10,100 -1,424 Descending Houston Center
Wed 10:44:06 AM 28.1917 -97.0689 239° Southwest 266 306 8,600 -1,450 Descending Houston Center
Wed 10:45:08 AM 28.1542 -97.1364 238° Southwest 257 296 7,200 -1,344 Descending Houston Center
Wed 10:46:11 AM 28.1192 -97.2011 238° Southwest 246 283 5,800 -1,333 Descending Houston Center
Wed 10:46:29 AM 28.1061 -97.2314 244° Southwest 238 274 5,400 -667 Descending Houston Center
Wed 10:47:23 AM 28.0772 -97.2947 243° Southwest 238 274 5,000 -226 Descending Houston Center
Wed 10:48:15 AM 28.0556 -97.3453 244° Southwest 233 268 5,000  Level Houston Center
Wed 10:49:24 AM 28.0222 -97.4256 245° Southwest 231 266 5,000  Level Houston Center
Wed 10:50:13 AM 27.9961 -97.4767 240° Southwest 233 268 5,000 -982 Level Houston Center
Wed 10:51:14 AM 27.9675 -97.5422 244° Southwest 221 254 3,200 -1,426 Descending Houston Center
Wed 10:52:15 AM 27.9417 -97.5956 241° Southwest 205 236 2,100 -541 Descending Houston Center
Wed 10:53:27 AM 27.9006 -97.6247 212° Southwest 177 204 2,000 -45 Descending Houston Center
Wed 10:54:28 AM 27.8536 -97.5981 153° Southeast 181 208 2,000  Level Houston Center

Login

Don't have an account? Register now (free) for customized features, flight alerts, and more!